Weather History for Needles, CA

Change the Weather History Date:

Monday, February 18, 2013

  Actual Average Record
Temperature  
Mean Temperature 60 °F -  
Max Temperature 72 °F 71 °F 87 °F (1981)
Min Temperature 48 °F 46 °F 37 °F (1966)
Degree Days  
Heating Degree Days 5    
Growing Degree Days 10 (Base 50)    
Moisture  
Dew Point 20 °F    
Average Humidity 23    
Maximum Humidity 33    
Minimum Humidity 14    
Precipitation  
Precipitation 0.00 in - - ()
Sea Level Pressure  
Sea Level Pressure 29.90 in    
Wind  
Wind Speed 5 mph (NNW)    
Max Wind Speed 15 mph    
Max Gust Speed -    
Visibility 10 miles    
Events      
Averages and records for this station are not official NWS values.
T = Trace of Precipitation, MM = Missing Value Source: NWS Daily Summary

Daily Weather History Graph

Daily Weather History Graph

Search for Another Location

Airport:

Trip Planner

Search our weather history database for the weather conditions in past years. The results will help you decide how hot, cold, wet, or windy it might be!

Date:

Astronomy

Feb. 18, 2013 Rise Set
Actual Time 6:20 AM PST 5:24 PM PST
Civil Twilight 5:54 AM PST 5:50 PM PST
Nautical Twilight 5:25 AM PST 6:19 PM PST
Astronomical Twilight 4:56 AM PST 6:49 PM PST
Moon 11:20 AM PST 12:57 AM PST
Length of Visible Light 11h 55m
Length of Day
11h 04m
First Quarter, 59% of the Moon is Illuminated
Feb 18
First Quarter
Feb 25
Full
Mar 4
Last Quarter
Mar 11
New
Mar 19
First Quarter

Hourly Weather History & Observations

Time (PST) Temp. Dew Point Humidity Pressure Visibility Wind Dir Wind Speed Gust Speed Precip Events Conditions
12:56 AM 54.0 °F 14.0 °F 21% 29.87 in 10.0 mi Calm Calm - N/A   Clear
1:56 AM 52.0 °F 18.0 °F 26% 29.89 in 10.0 mi SSE 3.5 mph - N/A   Clear
3:56 AM 48.0 °F 17.1 °F 29% 29.91 in 10.0 mi West 5.8 mph - N/A   Clear
4:56 AM 50.0 °F 19.0 °F 29% 29.94 in 10.0 mi Calm Calm - N/A   Clear
5:56 AM 52.0 °F 19.9 °F 28% 29.95 in 10.0 mi NNE 4.6 mph - N/A   Clear
6:56 AM 50.0 °F 21.9 °F 33% 29.99 in 10.0 mi West 3.5 mph - N/A   Clear
7:56 AM 57.0 °F 24.1 °F 28% 30.01 in 10.0 mi North 11.5 mph - N/A   Clear
8:56 AM 59.0 °F 23.0 °F 25% 30.01 in 10.0 mi NNE 11.5 mph - N/A   Clear
9:56 AM 64.0 °F 21.9 °F 20% 29.99 in 10.0 mi North 15.0 mph - N/A   Clear
10:56 AM 66.0 °F 21.0 °F 18% 29.99 in 10.0 mi NNE 10.4 mph - N/A   Clear
11:56 AM 69.1 °F 21.9 °F 17% 29.95 in 10.0 mi NNE 8.1 mph - N/A   Clear
12:56 PM 70.0 °F 21.0 °F 16% 29.92 in 10.0 mi Variable 5.8 mph - N/A   Clear
1:56 PM 71.1 °F 19.9 °F 14% 29.90 in 10.0 mi North 3.5 mph - N/A   Clear
3:56 PM 72.0 °F 19.9 °F 14% 29.86 in 10.0 mi East 3.5 mph - N/A   Clear
4:56 PM 71.1 °F 19.9 °F 14% 29.83 in 10.0 mi East 3.5 mph - N/A   Clear
6:56 PM 60.1 °F 21.0 °F 22% 29.84 in 10.0 mi West 8.1 mph - N/A   Clear
7:56 PM 59.0 °F 21.0 °F 23% 29.83 in 10.0 mi WSW 8.1 mph - N/A   Clear
8:56 PM 57.0 °F 21.0 °F 25% 29.84 in 10.0 mi Calm Calm - N/A   Clear
9:56 PM 55.0 °F 21.0 °F 27% 29.84 in 10.0 mi SW 3.5 mph - N/A   Clear
10:56 PM 53.1 °F 21.9 °F 30% 29.82 in 10.0 mi West 8.1 mph - N/A   Clear
11:56 PM 51.1 °F 21.9 °F 32% 29.82 in 10.0 mi Calm Calm - N/A   Clear